This is the latest recevied weather packets stored in our database for station/object WX1NWA. If no packets are shown the sender has not sent any weather packets the latest 10 day(s).
| Time | Temp. | Humidity | Pressure | Rain* | Wind** | Luminosity | Snow |
|---|---|---|---|---|---|---|---|
| 1777311651 | 23.89° C | 82% | 1010.8 hPa | 0 mm | - | 810 W/m² | - |
| 1777311349 | 23.89° C | 84% | 1010.8 hPa | 0 mm | - | 297 W/m² | - |
| 1777311046 | 23.33° C | 86% | 1010.5 hPa | 0 mm | - | 217 W/m² | - |
| 1777310744 | 23.89° C | 86% | 1010.6 hPa | 0 mm | - | 257 W/m² | - |
| 1777310441 | 23.33° C | 86% | 1010.6 hPa | 0 mm | - | 306 W/m² | - |
| 1777310138 | 23.33° C | 87% | 1010.8 hPa | 0 mm | - | 281 W/m² | - |
| 1777309836 | 23.89° C | 86% | 1010.6 hPa | 0 mm | - | 483 W/m² | - |
| 1777309534 | 23.33° C | 87% | 1010.8 hPa | 0 mm | - | 767 W/m² | - |
| 1777309230 | 22.78° C | 88% | 1010.6 hPa | 0 mm | - | 794 W/m² | - |
| 1777308929 | 22.78° C | 88% | 1010.7 hPa | 0 mm | - | 352 W/m² | - |
| 1777308624 | 22.78° C | 88% | 1010.9 hPa | 0 mm | - | 274 W/m² | - |
| 1777308320 | 22.78° C | 87% | 1010.5 hPa | 0 mm | - | 262 W/m² | - |
| 1777308015 | 22.78° C | 88% | 1010.6 hPa | 0 mm | - | 334 W/m² | - |
| 1777307714 | 22.78° C | 88% | 1010.6 hPa | 0 mm | - | 429 W/m² | - |
| 1777307410 | 22.78° C | 88% | 1010.4 hPa | 0 mm | - | 801 W/m² | - |
| 1777307108 | 22.78° C | 88% | 1010.5 hPa | 0 mm | - | 428 W/m² | - |
| 1777306804 | 22.22° C | 89% | 1010.5 hPa | 0 mm | - | 528 W/m² | - |
| 1777306502 | 22.78° C | 88% | 1010.5 hPa | 0 mm | - | 400 W/m² | - |
| 1777306197 | 22.78° C | 89% | 1010.5 hPa | 0 mm | - | 709 W/m² | - |
| 1777305892 | 22.22° C | 89% | 1010.4 hPa | 0 mm | - | 602 W/m² | - |
| 1777305589 | 22.22° C | 90% | 1010.6 hPa | 0 mm | - | 705 W/m² | - |
| 1777305285 | 22.22° C | 90% | 1010.2 hPa | 0 mm | - | 707 W/m² | - |
| 1777304979 | 22.22° C | 90% | 1010.2 hPa | 0 mm | - | 730 W/m² | - |
| 1777304675 | 21.67° C | 91% | 1010.3 hPa | 0 mm | - | 194 W/m² | - |
| 1777304373 | 22.22° C | 90% | 1010.4 hPa | 0 mm | - | 280 W/m² | - |
* Rain latest hour (hover to see other rain measurements)
** Current wind speed in m/s (hover to see current wind gust speed)